timestamp,wind_dir_avg,wind_spd_avg,wind_spd_max_dir,wind_spd_gust,battery_voltage,lat,long
2022-02-26 00:04:01+00:00,264.0,4.56,268.0,7.73,12.41,47.59359,-54.27349
2022-02-26 00:14:00+00:00,259.0,2.48,273.0,4.67,12.41,47.59359,-54.27349
2022-02-26 00:24:00+00:00,260.0,3.04,272.0,6.89,12.41,47.59359,-54.27349
2022-02-26 00:34:00+00:00,278.0,3.94,280.0,4.94,12.41,47.59359,-54.27349
2022-02-26 00:44:00+00:00,285.0,2.57,278.0,4.77,12.41,47.59359,-54.27349
2022-02-26 00:54:00+00:00,256.0,4.02,259.0,6.58,12.41,47.59359,-54.27349
2022-02-26 01:04:00+00:00,281.0,6.0,280.0,7.02,12.41,47.59359,-54.27349
2022-02-26 01:14:00+00:00,279.0,5.38,278.0,6.01,12.33,47.59359,-54.27349
2022-02-26 01:24:00+00:00,292.0,6.32,295.0,7.25,12.33,47.59359,-54.27349
2022-02-26 01:34:00+00:00,298.0,3.85,287.0,5.52,12.33,47.59359,-54.27349
2022-02-26 01:44:00+00:00,293.0,5.45,299.0,6.11,12.33,47.59359,-54.27349
2022-02-26 01:54:00+00:00,352.0,4.7,311.0,5.97,12.33,47.59359,-54.27349
2022-02-26 02:04:00+00:00,318.0,6.41,317.0,7.37,12.33,47.59359,-54.27349
2022-02-26 02:14:01+00:00,350.0,3.36,304.0,5.38,12.33,47.59359,-54.27349
2022-02-26 02:24:01+00:00,355.0,4.62,323.0,8.14,12.33,47.59359,-54.27349
2022-02-26 02:34:01+00:00,0.0,4.68,2.0,5.59,12.33,47.59359,-54.27349
2022-02-26 02:44:01+00:00,0.0,4.03,357.0,4.95,12.33,47.59359,-54.27349
2022-02-26 02:54:01+00:00,1.0,3.08,1.0,4.36,12.33,47.59359,-54.27349
2022-02-26 03:04:01+00:00,34.0,3.8,59.0,5.93,12.33,47.59359,-54.27349
2022-02-26 03:14:01+00:00,343.0,2.88,304.0,5.76,12.33,47.59359,-54.27349
2022-02-26 03:24:01+00:00,307.0,4.58,303.0,6.53,12.33,47.59359,-54.27349
2022-02-26 03:34:01+00:00,325.0,4.23,303.0,6.2,12.33,47.59359,-54.27349
2022-02-26 03:44:01+00:00,4.0,4.3,4.0,5.33,12.33,47.59359,-54.27349
2022-02-26 03:54:01+00:00,14.0,3.88,35.0,4.88,12.33,47.59359,-54.27349
2022-02-26 04:04:01+00:00,5.0,3.65,7.0,4.26,12.33,47.59359,-54.27349
2022-02-26 04:14:01+00:00,344.0,6.14,322.0,8.13,12.25,47.59359,-54.27349
2022-02-26 04:24:01+00:00,349.0,3.84,309.0,5.28,12.25,47.59359,-54.27349
2022-02-26 04:34:01+00:00,0.0,5.17,9.0,6.98,12.25,47.59359,-54.27349
2022-02-26 04:44:01+00:00,3.0,5.44,12.0,6.87,12.25,47.59359,-54.27349
2022-02-26 04:54:01+00:00,3.0,3.97,356.0,4.86,12.25,47.59359,-54.27349
2022-02-26 05:04:01+00:00,1.0,7.57,355.0,8.48,12.25,47.59359,-54.27349
2022-02-26 05:14:01+00:00,6.0,6.66,7.0,7.64,12.25,47.59359,-54.27349
2022-02-26 05:24:01+00:00,30.0,7.08,45.0,9.31,12.25,47.59359,-54.27349
2022-02-26 05:34:01+00:00,30.0,7.25,41.0,9.28,12.25,47.59359,-54.27349
2022-02-26 05:44:01+00:00,33.0,8.93,50.0,12.07,12.25,47.59359,-54.27349
2022-02-26 05:54:01+00:00,19.0,7.56,36.0,8.72,12.25,47.59359,-54.27349
2022-02-26 06:04:01+00:00,2.0,8.46,28.0,9.82,12.25,47.59359,-54.27349
2022-02-26 06:14:00+00:00,26.0,8.62,26.0,9.48,12.17,47.59359,-54.27349
2022-02-26 06:24:00+00:00,28.0,9.1,43.0,12.04,12.17,47.59359,-54.27349
2022-02-26 06:34:00+00:00,13.0,9.26,43.0,11.9,12.17,47.59359,-54.27349
2022-02-26 06:44:00+00:00,31.0,9.63,45.0,12.07,12.17,47.59359,-54.27349
2022-02-26 06:54:00+00:00,358.0,9.99,358.0,11.21,12.17,47.59359,-54.27349
2022-02-26 07:04:00+00:00,7.0,9.68,34.0,12.71,12.17,47.59359,-54.27349
2022-02-26 07:14:00+00:00,1.0,9.88,19.0,11.62,12.17,47.59359,-54.27349
2022-02-26 07:24:00+00:00,13.0,10.44,38.0,12.88,12.17,47.59359,-54.27349
2022-02-26 07:34:00+00:00,12.0,10.84,39.0,12.95,12.17,47.59359,-54.27349
2022-02-26 07:44:00+00:00,7.0,10.03,21.0,12.59,12.17,47.59359,-54.27349
2022-02-26 07:54:00+00:00,32.0,11.53,52.0,14.79,12.17,47.59359,-54.27349
2022-02-26 08:04:00+00:00,358.0,9.48,35.0,12.69,12.17,47.59359,-54.27349
2022-02-26 08:14:01+00:00,356.0,10.78,350.0,13.11,12.17,47.59359,-54.27349
2022-02-26 08:24:01+00:00,5.0,10.55,17.0,12.69,12.17,47.59359,-54.27349
2022-02-26 08:34:01+00:00,8.0,11.3,16.0,12.64,12.17,47.59359,-54.27349
2022-02-26 08:44:01+00:00,15.0,10.93,32.0,12.43,12.17,47.59359,-54.27349
2022-02-26 08:54:01+00:00,10.0,12.09,356.0,13.5,12.17,47.59359,-54.27349
2022-02-26 09:04:01+00:00,352.0,10.14,350.0,11.66,12.17,47.59359,-54.27349
2022-02-26 09:14:01+00:00,354.0,10.88,348.0,12.28,12.17,47.59359,-54.27349
2022-02-26 09:24:01+00:00,3.0,10.37,17.0,11.84,12.17,47.59359,-54.27349
2022-02-26 09:34:01+00:00,357.0,9.69,4.0,11.67,12.17,47.59359,-54.27349
2022-02-26 09:44:01+00:00,13.0,11.46,15.0,12.54,12.17,47.59359,-54.27349
2022-02-26 09:54:01+00:00,6.0,10.8,350.0,13.44,12.17,47.59359,-54.27349
2022-02-26 10:04:01+00:00,19.0,11.15,17.0,13.77,12.17,47.59359,-54.27349
2022-02-26 10:14:01+00:00,359.0,9.37,359.0,12.08,12.09,47.59359,-54.27349
2022-02-26 10:24:01+00:00,4.0,11.58,14.0,13.46,12.09,47.59359,-54.27349
2022-02-26 10:34:01+00:00,15.0,11.04,13.0,12.97,12.09,47.59359,-54.27349
2022-02-26 10:44:01+00:00,358.0,10.24,356.0,12.17,12.09,47.59359,-54.27349
2022-02-26 10:54:01+00:00,15.0,10.45,20.0,12.6,12.09,47.59359,-54.27349
2022-02-26 11:04:01+00:00,14.0,10.96,22.0,12.16,12.09,47.59359,-54.27349
2022-02-26 11:14:01+00:00,11.0,11.42,16.0,13.14,12.25,47.59359,-54.27349
2022-02-26 11:24:01+00:00,2.0,11.25,7.0,12.96,12.25,47.59359,-54.27349
2022-02-26 11:34:01+00:00,6.0,10.03,4.0,11.81,12.25,47.59359,-54.27349
2022-02-26 11:44:01+00:00,10.0,10.02,1.0,11.52,12.25,47.59359,-54.27349
2022-02-26 11:54:01+00:00,359.0,10.4,348.0,14.62,12.25,47.59359,-54.27349
2022-02-26 12:04:01+00:00,355.0,11.59,343.0,13.71,12.25,47.59359,-54.27349
2022-02-26 12:14:00+00:00,1.0,10.73,354.0,12.33,13.53,47.59359,-54.27349
2022-02-26 12:24:00+00:00,358.0,10.88,2.0,12.94,13.53,47.59359,-54.27349
2022-02-26 12:34:00+00:00,356.0,9.09,17.0,11.59,13.53,47.59359,-54.27349
2022-02-26 12:44:00+00:00,1.0,8.14,358.0,10.18,13.53,47.59359,-54.27349
2022-02-26 12:54:00+00:00,3.0,8.18,5.0,9.9,13.53,47.59359,-54.27349
2022-02-26 13:04:00+00:00,7.0,7.75,11.0,10.56,13.53,47.59359,-54.27349
2022-02-26 13:14:00+00:00,339.0,9.02,338.0,10.91,13.84,47.59359,-54.27349
2022-02-26 13:24:00+00:00,348.0,9.07,342.0,11.19,13.84,47.59359,-54.27349
2022-02-26 13:34:00+00:00,341.0,9.54,341.0,12.3,13.84,47.59359,-54.27349
2022-02-26 13:44:00+00:00,347.0,6.91,3.0,8.08,13.84,47.59359,-54.27349
2022-02-26 13:54:00+00:00,358.0,9.75,354.0,11.35,13.84,47.59359,-54.27349
2022-02-26 14:04:00+00:00,348.0,9.48,339.0,11.69,13.84,47.59359,-54.27349
2022-02-26 14:14:00+00:00,6.0,7.86,4.0,9.49,13.68,47.59359,-54.27349
2022-02-26 14:24:00+00:00,359.0,7.87,6.0,9.23,13.68,47.59359,-54.27349
2022-02-26 14:34:00+00:00,359.0,7.67,14.0,8.49,13.68,47.59359,-54.27349
2022-02-26 14:44:00+00:00,345.0,7.74,339.0,10.0,13.68,47.59359,-54.27349
2022-02-26 14:54:00+00:00,358.0,6.91,358.0,8.39,13.68,47.59359,-54.27349
2022-02-26 15:04:00+00:00,351.0,7.22,8.0,9.9,13.68,47.59359,-54.27349
2022-02-26 15:14:00+00:00,353.0,7.04,14.0,9.57,13.92,47.59359,-54.27349
2022-02-26 15:24:00+00:00,348.0,8.09,318.0,11.99,13.92,47.59359,-54.27349
2022-02-26 15:34:00+00:00,314.0,10.22,311.0,12.04,13.92,47.59359,-54.27349
2022-02-26 15:44:00+00:00,327.0,7.18,312.0,9.69,13.92,47.59359,-54.27349
2022-02-26 15:54:00+00:00,334.0,4.84,292.0,9.65,13.92,47.59359,-54.27349
2022-02-26 16:04:00+00:00,324.0,5.22,299.0,10.43,13.92,47.59359,-54.27349
2022-02-26 16:14:01+00:00,9.0,5.24,9.0,7.76,13.68,47.59359,-54.27349
2022-02-26 16:24:01+00:00,327.0,9.18,312.0,11.19,13.68,47.59359,-54.27349
2022-02-26 16:34:01+00:00,342.0,6.23,308.0,10.16,13.68,47.59359,-54.27349
2022-02-26 16:44:01+00:00,292.0,7.05,286.0,11.22,13.68,47.59359,-54.27349
2022-02-26 16:54:01+00:00,313.0,9.2,309.0,11.31,13.68,47.59359,-54.27349
2022-02-26 17:04:01+00:00,313.0,7.85,310.0,10.99,13.68,47.59359,-54.27349
2022-02-26 17:14:01+00:00,297.0,9.92,300.0,11.48,13.68,47.59359,-54.27349
2022-02-26 17:24:01+00:00,306.0,5.98,295.0,9.41,13.68,47.59359,-54.27349
2022-02-26 17:34:01+00:00,339.0,7.82,309.0,11.05,13.68,47.59359,-54.27349
2022-02-26 17:44:01+00:00,289.0,9.54,290.0,10.96,13.68,47.59359,-54.27349
2022-02-26 17:54:01+00:00,301.0,9.2,302.0,10.18,13.68,47.59359,-54.27349
2022-02-26 18:04:01+00:00,305.0,8.07,301.0,10.92,13.68,47.59359,-54.27349
2022-02-26 18:14:00+00:00,312.0,8.67,312.0,10.07,13.68,47.59359,-54.27349
2022-02-26 18:24:00+00:00,280.0,5.52,279.0,8.23,13.68,47.59359,-54.27349
2022-02-26 18:34:00+00:00,295.0,6.81,304.0,7.93,13.68,47.59359,-54.27349
2022-02-26 18:44:00+00:00,311.0,6.41,315.0,7.8,13.68,47.59359,-54.27349
2022-02-26 18:54:00+00:00,303.0,7.14,308.0,8.58,13.68,47.59359,-54.27349
2022-02-26 19:04:00+00:00,312.0,8.28,310.0,9.61,13.68,47.59359,-54.27349
2022-02-26 19:14:00+00:00,314.0,7.22,317.0,8.92,14.32,47.59359,-54.27349
2022-02-26 19:24:00+00:00,288.0,6.87,292.0,8.9,14.32,47.59359,-54.27349
2022-02-26 19:34:00+00:00,308.0,5.26,297.0,7.6,14.32,47.59359,-54.27349
2022-02-26 19:44:00+00:00,308.0,7.21,309.0,8.97,14.32,47.59359,-54.27349
2022-02-26 19:54:00+00:00,302.0,8.2,304.0,9.15,14.32,47.59359,-54.27349
2022-02-26 20:04:00+00:00,295.0,5.88,287.0,7.9,14.32,47.59359,-54.27349
2022-02-26 20:14:00+00:00,291.0,10.47,288.0,13.6,13.53,47.59359,-54.27349
2022-02-26 20:24:00+00:00,321.0,3.95,316.0,5.38,13.53,47.59359,-54.27349
2022-02-26 20:34:00+00:00,296.0,4.09,291.0,7.64,13.53,47.59359,-54.27349
2022-02-26 20:44:00+00:00,300.0,3.94,294.0,8.16,13.53,47.59359,-54.27349
2022-02-26 20:54:00+00:00,293.0,5.32,282.0,10.57,13.53,47.59359,-54.27349
2022-02-26 21:04:00+00:00,302.0,4.31,294.0,8.36,13.53,47.59359,-54.27349
2022-02-26 21:14:01+00:00,290.0,4.62,284.0,8.07,13.37,47.59359,-54.27349
2022-02-26 21:24:01+00:00,314.0,4.58,307.0,5.82,13.37,47.59359,-54.27349
2022-02-26 21:34:01+00:00,299.0,2.17,286.0,3.4,13.37,47.59359,-54.27349
2022-02-26 21:44:01+00:00,269.0,2.5,268.0,4.61,13.37,47.59359,-54.27349
2022-02-26 21:54:01+00:00,247.0,2.46,264.0,8.17,13.37,47.59359,-54.27349
2022-02-26 22:04:01+00:00,270.0,4.12,266.0,7.99,13.37,47.59359,-54.27349
2022-02-26 22:14:00+00:00,249.0,3.93,257.0,7.77,12.57,47.59359,-54.27349
2022-02-26 22:24:00+00:00,249.0,9.43,254.0,13.65,12.57,47.59359,-54.27349
2022-02-26 22:34:00+00:00,254.0,6.86,255.0,8.28,12.57,47.59359,-54.27349
2022-02-26 22:44:00+00:00,259.0,7.99,261.0,9.13,12.57,47.59359,-54.27349
2022-02-26 22:54:00+00:00,256.0,7.93,260.0,13.47,12.57,47.59359,-54.27349
2022-02-26 23:04:00+00:00,254.0,7.76,265.0,12.61,12.57,47.59359,-54.27349
2022-02-26 23:14:01+00:00,252.0,7.21,256.0,8.53,12.41,47.59359,-54.27349
2022-02-26 23:24:01+00:00,256.0,6.39,259.0,8.07,12.41,47.59359,-54.27349
2022-02-26 23:34:01+00:00,255.0,8.17,248.0,8.85,12.41,47.59359,-54.27349
2022-02-26 23:44:01+00:00,258.0,7.19,260.0,10.41,12.41,47.59359,-54.27349
2022-02-26 23:54:01+00:00,254.0,6.88,256.0,8.18,12.41,47.59359,-54.27349
